Location: Unspecified
(40.1344°N, 0.0000°E)
Time: 04:31:08
(UTC+00:00)

Oscar 15 - Visible Passes

Search period start: 04 April 2026 00:00
Search period end: 14 April 2026 00:00
Orbit: 780 x 793 km, 98.8° (Epoch: 29 March)

Date Brightness Start Highest point End Pass type
(mag) Time Alt. Az. Time Alt. Az. Time Alt. Az.
4 Apr 10.3 19:09:47 10° E 19:12:36 15° ENE 19:15:29 10° NNE visible
4 Apr 8.7 20:50:26 58° SSW 20:51:21 71° WSW 20:56:34 10° NNW visible
5 Apr 8.6 20:19:15 44° SE 20:20:41 60° ENE 20:25:50 10° N visible
5 Apr 10.9 21:59:53 16° W 22:00:26 16° W 22:03:34 10° NW visible
6 Apr 9.4 19:48:05 24° ESE 19:50:10 32° ENE 19:54:44 10° N visible
6 Apr 10.0 21:28:42 30° WSW 21:29:28 31° W 21:34:05 10° NW visible
7 Apr 10.2 19:16:54 12° E 19:19:48 17° ENE 19:23:07 10° NNE visible
7 Apr 8.9 20:57:32 49° SSW 20:58:38 61° WSW 21:03:49 10° NNW visible
8 Apr 8.5 20:26:22 44° SE 20:27:57 70° ENE 20:33:09 10° N visible
8 Apr 11.0 22:07:00 13° W 22:07:48 14° W 22:10:20 10° WNW visible
9 Apr 9.2 19:55:12 25° ESE 19:57:24 36° ENE 20:02:08 10° N visible
9 Apr 10.2 21:35:50 25° WSW 21:36:48 27° W 21:41:10 10° NW visible
10 Apr 10.0 19:24:03 13° ESE 19:26:59 20° ENE 19:30:40 10° NNE visible
10 Apr 9.2 21:04:40 42° SW 21:05:57 52° W 21:11:02 10° NNW visible
11 Apr 8.4 20:33:30 44° SSE 20:35:13 81° ENE 20:40:27 10° NNW visible
11 Apr 11.2 22:14:08 11° WSW 22:15:10 11° W 22:16:47 10° WNW visible
12 Apr 9.0 20:02:20 27° ESE 20:04:38 42° ENE 20:09:31 10° N visible
12 Apr 10.4 21:42:58 21° WSW 21:44:08 23° W 21:48:14 10° NW visible
13 Apr 9.9 19:31:10 14° ESE 19:34:11 23° ENE 19:38:11 10° NNE visible
13 Apr 9.4 21:11:48 36° SW 21:13:15 44° W 21:18:14 10° NNW visible
